This demonstration page uses our WeatherBlox Daily Observations layout. Learn more.

Left ArrowRight Arrow

44.8408, -93.29828

Hourly Observations for November 29, 2020

Temp ( °F °C ) Dew Point ( °F °C ) Humidity (%) Winds ( mph kmh ) Pressure ( in mb ) Visibility ( mi km ) Precip ( " mm )
12:53 am 00:53 Mostly Clear 38 3.3 29 -1.7 70 70 SW 5 7 29.89 1012 10 16 0.00 0.00
1:53 am 01:53 Mostly Cloudy 37 2.8 28 -2.2 70 70 WSW 5 7 29.90 1012 10 16 0.00 0.00
2:53 am 02:53 Mostly Cloudy 36 2.2 28 -2.2 73 73 WSW 7 11 29.92 1013 10 16 0.00 0.00
3:53 am 03:53 Mostly Cloudy 36 2.2 27 -2.8 70 70 WNW 7 11 29.92 1013 10 16 0.00 0.00
4:53 am 04:53 Mostly Cloudy 38 3.3 28 -2.2 68 68 NW 15 24 29.95 1014 10 16 0.00 0.00
5:53 am 05:53 Mostly Cloudy 37 2.8 27 -2.8 67 67 NW 21 33 30.00 1016 10 16 0.00 0.00
6:20 am 06:20 Mostly Cloudy 36 2.2 27 -2.8 70 70 NW 16 26 30.04 1017 10 16 0.00 0.00
6:53 am 06:53 Cloudy 37 2.8 26 -3.3 65 65 NNW 22 35 30.04 1017 10 16 0.00 0.00
7:53 am 07:53 Cloudy 36 2.2 25 -3.9 64 64 NW 20 31 30.07 1018 10 16 0.00 0.00
8:53 am 08:53 Cloudy 36 2.2 24 -4.4 62 62 NNW 22 35 30.10 1019 10 16 0.00 0.00
9:53 am 09:53 Mostly Cloudy 36 2.2 21 -6.1 55 55 NNW 25 41 30.13 1020 10 16 0.00 0.00
10:53 am 10:53 Cloudy 35 1.7 19 -7.2 52 52 NNW 26 43 30.15 1021 10 16 0.00 0.00
11:53 am 11:53 Cloudy 35 1.7 18 -7.8 50 50 NW 23 37 30.16 1022 10 16 0.00 0.00
12:53 pm 12:53 Partly Cloudy 36 2.2 16 -8.9 44 44 NW 24 39 30.17 1022 10 16 0.00 0.00
1:53 pm 13:53 Mostly Sunny 36 2.2 16 -8.9 44 44 NW 24 39 30.16 1021 10 16 0.00 0.00
2:53 pm 14:53 Partly Cloudy 35 1.7 15 -9.4 44 44 NW 24 39 30.17 1022 10 16 0.00 0.00
3:53 pm 15:53 Mostly Cloudy 32 0 14 -10 47 47 NW 25 41 30.20 1023 10 16 0.00 0.00
4:53 pm 16:53 Cloudy 30 -1.1 13 -10.6 49 49 NNW 15 24 30.24 1024 10 16 0.00 0.00
5:53 pm 17:53 Mostly Cloudy 29 -1.7 13 -10.6 51 51 NNW 17 28 30.25 1025 10 16 0.00 0.00
6:53 pm 18:53 Mostly Cloudy 27 -2.8 13 -10.6 55 55 NNW 23 37 30.27 1025 10 16 0.00 0.00
7:53 pm 19:53 Mostly Cloudy 26 -3.3 13 -10.6 57 57 NNW 21 33 30.30 1026 10 16 0.00 0.00
8:53 pm 20:53 Mostly Clear 24 -4.4 13 -10.6 62 62 NNW 13 20 30.31 1027 10 16 0.00 0.00
9:53 pm 21:53 Clear 23 -5 13 -10.6 65 65 NNW 20 31 30.31 1027 10 16 0.00 0.00
10:53 pm 22:53 Partly Cloudy 22 -5.6 13 -10.6 68 68 NNW 15 24 30.31 1026 10 16 0.00 0.00
11:22 pm 23:22 Mostly Cloudy 22 -5.6 13 -10.6 68 68 NNW 17 28 30.35 1028 10 16 0.00 0.00
11:53 pm 23:53 Cloudy 22 -5.6 13 -10.6 68 68 N 16 26 30.31 1026 10 16 0.00 0.00

Powered by AerisWeather